When you browse on this site, cookies collect data to enhance your experience and personalize the content and advertising you see.
Visit our Privacy Policy to learn more. By continuing to use the site, you agree to this use of cookies and data.
  • In Romania
  • List of Countries
  • For 7 days
  • Water Temperature
  • Satellite Maps
  • Weather Map
  • Weather Widgets
  • user-avatar
    Login

    Hourly Weather Tromsø

    Today, 17 July, Wednesday

    Time Temperature Precipitation Wind Pressure Humidity
    00:00 +9°C° 0 mm 1 mps 753 mmHg 85%
    01:00 +9°C° 0 mm 1 mps 753 mmHg 85%
    02:00 +9°C° 0 mm 1 mps 753 mmHg 84%
    03:00 +8°C° 0 mm 0 mps 752 mmHg 84%
    04:00 +8°C° 0 mm 0 mps 752 mmHg 83%
    05:00 +9°C° 0 mm 0 mps 752 mmHg 83%
    06:00 +10°C° 0 mm 1 mps 752 mmHg 82%
    07:00 +10°C° 0 mm 1 mps 752 mmHg 82%
    08:00 +10°C° 0 mm 1 mps 752 mmHg 81%
    09:00 +11°C° 0 mm 1 mps 751 mmHg 80%
    10:00 +11°C° 0 mm 1 mps 751 mmHg 79%
    11:00 +12°C° 0 mm 1 mps 751 mmHg 77%
    12:00 +12°C° 0 mm 1 mps 751 mmHg 75%
    13:00 +13°C° 0 mm 2 mps 751 mmHg 73%
    14:00 +13°C° 0.1 mm 2 mps 751 mmHg 73%
    15:00 +12°C° 0.1 mm 3 mps 751 mmHg 72%
    16:00 +12°C° 0.1 mm 3 mps 750 mmHg 72%
    17:00 +12°C° 0 mm 3 mps 750 mmHg 74%
    18:00 +11°C° 0 mm 3 mps 750 mmHg 76%
    19:00 +11°C° 0 mm 3 mps 750 mmHg 78%
    20:00 +10°C° 0 mm 2 mps 750 mmHg 81%
    21:00 +9°C° 0 mm 2 mps 750 mmHg 85%
    22:00 +8°C° 0 mm 2 mps 750 mmHg 89%
    23:00 +8°C° 0 mm 1 mps 750 mmHg 90%

    Tomorrow, 18 July, Thursday

    Time Temperature Precipitation Wind Pressure Humidity
    00:00 +7°C° 0 mm 1 mps 750 mmHg 91%
    01:00 +7°C° 0 mm 1 mps 750 mmHg 92%
    02:00 +7°C° 0 mm 1 mps 750 mmHg 90%
    03:00 +8°C° 0 mm 1 mps 750 mmHg 88%
    04:00 +9°C° 0 mm 1 mps 750 mmHg 86%
    05:00 +9°C° 0 mm 1 mps 750 mmHg 82%
    06:00 +10°C° 0 mm 1 mps 750 mmHg 78%
    07:00 +11°C° 0 mm 1 mps 750 mmHg 74%
    08:00 +12°C° 0 mm 1 mps 750 mmHg 71%
    09:00 +13°C° 0 mm 1 mps 750 mmHg 68%
    10:00 +14°C° 0 mm 1 mps 751 mmHg 65%
    11:00 +15°C° 0 mm 1 mps 751 mmHg 62%
    12:00 +16°C° 0 mm 1 mps 751 mmHg 59%
    13:00 +18°C° 0 mm 1 mps 751 mmHg 56%
    14:00 +18°C° 0 mm 1 mps 751 mmHg 55%
    15:00 +19°C° 0 mm 1 mps 751 mmHg 54%
    16:00 +19°C° 0 mm 1 mps 751 mmHg 53%
    17:00 +19°C° 0 mm 1 mps 751 mmHg 55%
    18:00 +19°C° 0 mm 1 mps 751 mmHg 56%
    19:00 +19°C° 0 mm 1 mps 751 mmHg 58%
    20:00 +16°C° 0 mm 1 mps 751 mmHg 64%
    21:00 +15°C° 0 mm 1 mps 751 mmHg 71%
    22:00 +13°C° 0 mm 1 mps 751 mmHg 77%
    23:00 +12°C° 0 mm 1 mps 751 mmHg 77%

    Day after tomorrow, 19 July, Friday

    Time Temperature Precipitation Wind Pressure Humidity
    00:00 +12°C° 0 mm 1 mps 751 mmHg 76%
    01:00 +12°C° 0 mm 2 mps 751 mmHg 76%
    02:00 +13°C° 0 mm 2 mps 751 mmHg 76%
    03:00 +14°C° 0 mm 2 mps 751 mmHg 75%
    04:00 +14°C° 0 mm 2 mps 750 mmHg 75%
    05:00 +16°C° 0 mm 2 mps 750 mmHg 70%
    06:00 +17°C° 0 mm 2 mps 750 mmHg 66%
    07:00 +18°C° 0 mm 2 mps 750 mmHg 62%
    08:00 +19°C° 0 mm 2 mps 750 mmHg 58%
    09:00 +20°C° 0 mm 2 mps 750 mmHg 54%
    10:00 +21°C° 0 mm 2 mps 750 mmHg 50%
    11:00 +23°C° 0 mm 2 mps 750 mmHg 48%
    12:00 +23°C° 0 mm 2 mps 750 mmHg 46%
    13:00 +24°C° 0 mm 2 mps 750 mmHg 45%
    14:00 +24°C° 0 mm 2 mps 750 mmHg 44%
    15:00 +25°C° 0 mm 1 mps 750 mmHg 43%
    16:00 +25°C° 0 mm 1 mps 750 mmHg 42%
    17:00 +25°C° 0 mm 1 mps 750 mmHg 47%
    18:00 +24°C° 0 mm 1 mps 750 mmHg 52%
    19:00 +24°C° 0 mm 1 mps 750 mmHg 56%
    20:00 +22°C° 0 mm 1 mps 750 mmHg 60%
    21:00 +21°C° 0 mm 1 mps 750 mmHg 64%
    22:00 +19°C° 0 mm 1 mps 750 mmHg 67%
    23:00 +18°C° 0 mm 1 mps 750 mmHg 69%

    20 July, Saturday

    Time Temperature Precipitation Wind Pressure Humidity
    00:00 +18°C° 0 mm 1 mps 750 mmHg 71%
    01:00 +16°C° 0 mm 1 mps 750 mmHg 73%
    02:00 +17°C° 0 mm 2 mps 750 mmHg 72%
    03:00 +17°C° 0 mm 2 mps 750 mmHg 72%
    04:00 +18°C° 0 mm 2 mps 750 mmHg 72%
    05:00 +19°C° 0 mm 2 mps 750 mmHg 68%
    06:00 +20°C° 0 mm 2 mps 750 mmHg 63%
    07:00 +21°C° 0 mm 2 mps 751 mmHg 59%
    08:00 +23°C° 0 mm 2 mps 751 mmHg 56%
    09:00 +24°C° 0 mm 1 mps 751 mmHg 53%
    10:00 +25°C° 0 mm 1 mps 751 mmHg 50%
    11:00 +25°C° 0.3 mm 2 mps 752 mmHg 52%
    12:00 +25°C° 0.3 mm 2 mps 752 mmHg 54%
    13:00 +24°C° 0.3 mm 3 mps 752 mmHg 56%
    14:00 +24°C° 0.2 mm 3 mps 752 mmHg 59%
    15:00 +22°C° 0.2 mm 3 mps 753 mmHg 62%
    16:00 +22°C° 0.2 mm 3 mps 753 mmHg 65%
    17:00 +21°C° 0.1 mm 3 mps 753 mmHg 68%
    18:00 +20°C° 0.1 mm 2 mps 753 mmHg 70%
    19:00 +19°C° 0.1 mm 2 mps 753 mmHg 73%
    20:00 +18°C° 0 mm 2 mps 754 mmHg 78%
    21:00 +16°C° 0 mm 1 mps 754 mmHg 83%
    22:00 +15°C° 0 mm 1 mps 754 mmHg 88%
    23:00 +14°C° 0 mm 1 mps 754 mmHg 89%

    21 July, Sunday

    Time Temperature Precipitation Wind Pressure Humidity
    00:00 +14°C° 0 mm 1 mps 754 mmHg 90%
    01:00 +12°C° 0 mm 0 mps 754 mmHg 92%
    02:00 +13°C° 0 mm 0 mps 754 mmHg 89%
    03:00 +14°C° 0 mm 0 mps 754 mmHg 85%
    04:00 +15°C° 0 mm 1 mps 754 mmHg 82%
    05:00 +16°C° 0 mm 1 mps 754 mmHg 80%
    06:00 +18°C° 0 mm 1 mps 754 mmHg 78%
    07:00 +18°C° 0 mm 1 mps 754 mmHg 76%
    08:00 +20°C° 0.1 mm 1 mps 754 mmHg 72%
    09:00 +21°C° 0.1 mm 1 mps 754 mmHg 68%
    10:00 +22°C° 0.1 mm 1 mps 754 mmHg 65%
    11:00 +23°C° 0.1 mm 1 mps 754 mmHg 62%
    12:00 +24°C° 0.1 mm 1 mps 754 mmHg 60%
    13:00 +24°C° 0.1 mm 1 mps 754 mmHg 58%
    14:00 +24°C° 0.2 mm 2 mps 754 mmHg 60%
    15:00 +24°C° 0.2 mm 2 mps 754 mmHg 62%
    16:00 +24°C° 0.2 mm 2 mps 754 mmHg 64%
    17:00 +23°C° 0.3 mm 2 mps 754 mmHg 67%
    18:00 +23°C° 0.3 mm 2 mps 754 mmHg 71%
    19:00 +22°C° 0.3 mm 1 mps 754 mmHg 75%
    20:00 +21°C° 0.1 mm 1 mps 754 mmHg 78%
    21:00 +19°C° 0.1 mm 1 mps 754 mmHg 82%
    22:00 +16°C° 0.1 mm 0 mps 753 mmHg 86%
    23:00 +15°C° 0 mm 0 mps 754 mmHg 86%

    22 July, Monday

    Time Temperature Precipitation Wind Pressure Humidity
    00:00 +15°C° 0 mm 0 mps 754 mmHg 86%
    01:00 +14°C° 0 mm 0 mps 754 mmHg 86%
    02:00 +16°C° 0 mm 1 mps 754 mmHg 85%
    03:00 +18°C° 0 mm 1 mps 754 mmHg 83%
    04:00 +19°C° 0 mm 1 mps 754 mmHg 82%
    05:00 +20°C° 0 mm 1 mps 754 mmHg 78%
    06:00 +21°C° 0 mm 1 mps 754 mmHg 74%
    07:00 +22°C° 0 mm 1 mps 754 mmHg 70%
    08:00 +22°C° 0.3 mm 1 mps 754 mmHg 68%
    09:00 +23°C° 0.3 mm 1 mps 754 mmHg 65%
    10:00 +24°C° 0.3 mm 1 mps 754 mmHg 63%
    11:00 +23°C° 1.1 mm 1 mps 755 mmHg 69%
    12:00 +22°C° 1.1 mm 1 mps 755 mmHg 74%
    13:00 +21°C° 1.1 mm 1 mps 755 mmHg 79%
    14:00 +21°C° 0.2 mm 1 mps 755 mmHg 78%
    15:00 +21°C° 0.2 mm 1 mps 755 mmHg 77%
    16:00 +21°C° 0.2 mm 1 mps 755 mmHg 76%
    17:00 +21°C° 0.1 mm 1 mps 756 mmHg 76%
    18:00 +21°C° 0.1 mm 1 mps 756 mmHg 77%
    19:00 +21°C° 0.1 mm 1 mps 756 mmHg 78%
    20:00 +19°C° 0.2 mm 1 mps 756 mmHg 83%
    21:00 +18°C° 0.2 mm 1 mps 756 mmHg 87%
    22:00 +15°C° 0.2 mm 1 mps 756 mmHg 92%
    23:00 +14°C° 0 mm 1 mps 756 mmHg 92%
    Show more